This is the latest recevied weather packets stored in our database for station/object K5FEP. If no packets are shown the sender has not sent any weather packets the latest 10 day(s).
| Time | Temp. | Humidity | Pressure | Rain* | Wind** | Luminosity | Snow |
|---|---|---|---|---|---|---|---|
| 1777158043 | 17.22° C | 92% | 1010.2 hPa | 4.83 mm | - | 5 W/m² | - |
| 1777157739 | 17.22° C | 92% | 1010.1 hPa | 4.83 mm | - | 4 W/m² | - |
| 1777157435 | 17.22° C | 91% | 1009.3 hPa | 4.83 mm | - | 9 W/m² | - |
| 1777157131 | 17.22° C | 91% | 1009.3 hPa | 4.83 mm | - | 11 W/m² | - |
| 1777156826 | 17.78° C | 91% | 1008.9 hPa | 7.11 mm | - | 10 W/m² | - |
| 1777156526 | 17.78° C | 91% | 1009.1 hPa | 6.1 mm | - | 8 W/m² | - |
| 1777156223 | 17.78° C | 91% | 1009.1 hPa | 3.05 mm | - | 9 W/m² | - |
| 1777155919 | 17.78° C | 91% | 1009.3 hPa | 3.05 mm | - | 9 W/m² | - |
| 1777155614 | 17.78° C | 91% | 1009.2 hPa | 6.6 mm | - | 9 W/m² | - |
| 1777155312 | 17.78° C | 91% | 1009.4 hPa | 6.6 mm | - | 9 W/m² | - |
| 1777155009 | 17.78° C | 90% | 1009.4 hPa | 8.89 mm | - | 11 W/m² | - |
| 1777154706 | 17.78° C | 89% | 1008.9 hPa | 18.03 mm | - | 11 W/m² | - |
| 1777154402 | 18.33° C | 87% | 1008.8 hPa | 14.99 mm | - | 8 W/m² | - |
| 1777154097 | 18.33° C | 85% | 1008.8 hPa | 6.1 mm | - | 12 W/m² | - |
| 1777153794 | 18.89° C | 83% | 1008.2 hPa | 3.05 mm | - | 13 W/m² | - |
| 1777153490 | 19.44° C | 80% | 1007.6 hPa | 7.11 mm | - | 27 W/m² | - |
| 1777153186 | 20.56° C | 72% | 1007.5 hPa | 7.87 mm | - | 25 W/m² | - |
| 1777152883 | 21.67° C | 64% | 1007.5 hPa | 0 mm | - | 18 W/m² | - |
| 1777152579 | 21.67° C | 61% | 1007.4 hPa | 0 mm | - | 17 W/m² | - |
| 1777152276 | 22.22° C | 60% | 1007.3 hPa | 0 mm | - | 22 W/m² | - |
| 1777151971 | 22.22° C | 60% | 1007.2 hPa | 0 mm | - | 33 W/m² | - |
| 1777151666 | 22.22° C | 60% | 1006.9 hPa | 0 mm | - | 40 W/m² | - |
| 1777151364 | 22.22° C | 59% | 1006.8 hPa | 0 mm | - | 41 W/m² | - |
| 1777151060 | 22.78° C | 58% | 1006.8 hPa | 0 mm | - | 23 W/m² | - |
| 1777150754 | 23.33° C | 56% | 1006.2 hPa | 0 mm | - | 23 W/m² | - |
* Rain latest hour (hover to see other rain measurements)
** Current wind speed in m/s (hover to see current wind gust speed)